<?xml version="1.0" encoding="UTF-8" standalone="no" ?>
<gpx xmlns="http://www.topografix.com/GPX/1/1" xmlns:xsi="http://www.w3.org/2001/XMLSchema-instance" xsi:schemaLocation="http://www.topografix.com/GPX/1/1 http://www.topografix.com/GPX/1/1/gpx.xsd" version="1.1" creator="VisuGPX - https://www.visugpx.com">
  <metadata>
    <name>Balad\'Eure 2015</name>
    <desc><![CDATA[Balad\'Eure 2015 - VTT - Organisée par le CLE
18, 35 et 50 km]]></desc>
  </metadata>
  <trk>
    <name><![CDATA[baladeure2015]]></name>
    <trkseg>
      <trkpt lat="48.96891" lon="1.09665">
        <ele>139</ele>
        <time>2015-05-22T20:00:29Z</time>
      </trkpt>
      <trkpt lat="48.96944" lon="1.09593">
        <ele>139</ele>
        <time>2015-05-22T20:00:29Z</time>
      </trkpt>
      <trkpt lat="48.96978" lon="1.09626">
        <ele>140</ele>
        <time>2015-05-22T20:00:29Z</time>
      </trkpt>
      <trkpt lat="48.97028" lon="1.09642">
        <ele>140</ele>
        <time>2015-05-22T20:00:29Z</time>
      </trkpt>
      <trkpt lat="48.97056" lon="1.09757">
        <ele>140</ele>
        <time>2015-05-22T20:00:29Z</time>
      </trkpt>
      <trkpt lat="48.97071" lon="1.0989">
        <ele>140</ele>
        <time>2015-05-22T20:00:29Z</time>
      </trkpt>
      <trkpt lat="48.97076" lon="1.09989">
        <ele>141</ele>
        <time>2015-05-22T20:00:29Z</time>
      </trkpt>
      <trkpt lat="48.9708" lon="1.10101">
        <ele>142</ele>
        <time>2015-05-22T20:00:29Z</time>
      </trkpt>
      <trkpt lat="48.97077" lon="1.10238">
        <ele>139</ele>
        <time>2015-05-22T20:00:29Z</time>
      </trkpt>
      <trkpt lat="48.97077" lon="1.10303">
        <ele>139</ele>
        <time>2015-05-22T20:00:29Z</time>
      </trkpt>
      <trkpt lat="48.97044" lon="1.10368">
        <ele>139</ele>
        <time>2015-05-22T20:00:29Z</time>
      </trkpt>
      <trkpt lat="48.97029" lon="1.10444">
        <ele>140</ele>
        <time>2015-05-22T20:00:29Z</time>
      </trkpt>
      <trkpt lat="48.96952" lon="1.10538">
        <ele>142</ele>
        <time>2015-05-22T20:00:29Z</time>
      </trkpt>
      <trkpt lat="48.96874" lon="1.10604">
        <ele>144</ele>
        <time>2015-05-22T20:00:29Z</time>
      </trkpt>
      <trkpt lat="48.96848" lon="1.10533">
        <ele>143</ele>
        <time>2015-05-22T20:00:29Z</time>
      </trkpt>
      <trkpt lat="48.96825" lon="1.10445">
        <ele>142</ele>
        <time>2015-05-22T20:00:29Z</time>
      </trkpt>
      <trkpt lat="48.96811" lon="1.10387">
        <ele>142</ele>
        <time>2015-05-22T20:00:29Z</time>
      </trkpt>
      <trkpt lat="48.96734" lon="1.10382">
        <ele>143</ele>
        <time>2015-05-22T20:00:29Z</time>
      </trkpt>
      <trkpt lat="48.96708" lon="1.10387">
        <ele>143</ele>
        <time>2015-05-22T20:00:29Z</time>
      </trkpt>
      <trkpt lat="48.96676" lon="1.10551">
        <ele>143</ele>
        <time>2015-05-22T20:00:29Z</time>
      </trkpt>
      <trkpt lat="48.96645" lon="1.10651">
        <ele>143</ele>
        <time>2015-05-22T20:00:29Z</time>
      </trkpt>
      <trkpt lat="48.96409" lon="1.1083">
        <ele>146</ele>
        <time>2015-05-22T20:00:29Z</time>
      </trkpt>
      <trkpt lat="48.96271" lon="1.10933">
        <ele>147</ele>
        <time>2015-05-22T20:00:29Z</time>
      </trkpt>
      <trkpt lat="48.96367" lon="1.11118">
        <ele>149</ele>
        <time>2015-05-22T20:00:29Z</time>
      </trkpt>
      <trkpt lat="48.96474" lon="1.1131">
        <ele>148</ele>
        <time>2015-05-22T20:00:29Z</time>
      </trkpt>
      <trkpt lat="48.96407" lon="1.1154">
        <ele>147</ele>
        <time>2015-05-22T20:00:29Z</time>
      </trkpt>
      <trkpt lat="48.96519" lon="1.11449">
        <ele>147</ele>
        <time>2015-05-22T20:00:29Z</time>
      </trkpt>
      <trkpt lat="48.96621" lon="1.11365">
        <ele>147</ele>
        <time>2015-05-22T20:00:29Z</time>
      </trkpt>
      <trkpt lat="48.96715" lon="1.11332">
        <ele>147</ele>
        <time>2015-05-22T20:00:29Z</time>
      </trkpt>
      <trkpt lat="48.96879" lon="1.1128">
        <ele>146</ele>
        <time>2015-05-22T20:00:29Z</time>
      </trkpt>
      <trkpt lat="48.96964" lon="1.11268">
        <ele>146</ele>
        <time>2015-05-22T20:00:29Z</time>
      </trkpt>
      <trkpt lat="48.97013" lon="1.11229">
        <ele>146</ele>
        <time>2015-05-22T20:00:29Z</time>
      </trkpt>
      <trkpt lat="48.97062" lon="1.11228">
        <ele>146</ele>
        <time>2015-05-22T20:00:29Z</time>
      </trkpt>
      <trkpt lat="48.97143" lon="1.11202">
        <ele>145</ele>
        <time>2015-05-22T20:00:29Z</time>
      </trkpt>
      <trkpt lat="48.97196" lon="1.1117">
        <ele>143</ele>
        <time>2015-05-22T20:00:29Z</time>
      </trkpt>
      <trkpt lat="48.97284" lon="1.11209">
        <ele>141</ele>
        <time>2015-05-22T20:00:29Z</time>
      </trkpt>
      <trkpt lat="48.97466" lon="1.11136">
        <ele>139</ele>
        <time>2015-05-22T20:00:29Z</time>
      </trkpt>
      <trkpt lat="48.97593" lon="1.11069">
        <ele>136</ele>
        <time>2015-05-22T20:00:29Z</time>
      </trkpt>
      <trkpt lat="48.97649" lon="1.11064">
        <ele>134</ele>
        <time>2015-05-22T20:00:29Z</time>
      </trkpt>
      <trkpt lat="48.97669" lon="1.10995">
        <ele>134</ele>
        <time>2015-05-22T20:00:29Z</time>
      </trkpt>
      <trkpt lat="48.97938" lon="1.11002">
        <ele>140</ele>
        <time>2015-05-22T20:00:29Z</time>
      </trkpt>
      <trkpt lat="48.97972" lon="1.11015">
        <ele>140</ele>
        <time>2015-05-22T20:00:29Z</time>
      </trkpt>
      <trkpt lat="48.98" lon="1.11073">
        <ele>140</ele>
        <time>2015-05-22T20:00:29Z</time>
      </trkpt>
      <trkpt lat="48.98027" lon="1.11127">
        <ele>141</ele>
        <time>2015-05-22T20:00:29Z</time>
      </trkpt>
      <trkpt lat="48.98075" lon="1.1119">
        <ele>141</ele>
        <time>2015-05-22T20:00:29Z</time>
      </trkpt>
      <trkpt lat="48.98136" lon="1.1124">
        <ele>141</ele>
        <time>2015-05-22T20:00:29Z</time>
      </trkpt>
      <trkpt lat="48.98175" lon="1.11266">
        <ele>141</ele>
        <time>2015-05-22T20:00:29Z</time>
      </trkpt>
      <trkpt lat="48.98211" lon="1.1131">
        <ele>141</ele>
        <time>2015-05-22T20:00:29Z</time>
      </trkpt>
      <trkpt lat="48.98257" lon="1.11343">
        <ele>141</ele>
        <time>2015-05-22T20:00:29Z</time>
      </trkpt>
      <trkpt lat="48.98284" lon="1.11346">
        <ele>141</ele>
        <time>2015-05-22T20:00:29Z</time>
      </trkpt>
      <trkpt lat="48.98286" lon="1.11387">
        <ele>141</ele>
        <time>2015-05-22T20:00:29Z</time>
      </trkpt>
      <trkpt lat="48.9864" lon="1.11051">
        <ele>129</ele>
        <time>2015-05-22T20:00:29Z</time>
      </trkpt>
      <trkpt lat="48.9868" lon="1.10998">
        <ele>130</ele>
        <time>2015-05-22T20:00:29Z</time>
      </trkpt>
      <trkpt lat="48.98792" lon="1.10999">
        <ele>124</ele>
        <time>2015-05-22T20:00:29Z</time>
      </trkpt>
      <trkpt lat="48.98916" lon="1.10976">
        <ele>117</ele>
        <time>2015-05-22T20:00:29Z</time>
      </trkpt>
      <trkpt lat="48.98992" lon="1.1093">
        <ele>109</ele>
        <time>2015-05-22T20:00:29Z</time>
      </trkpt>
      <trkpt lat="48.99081" lon="1.10859">
        <ele>112</ele>
        <time>2015-05-22T20:00:29Z</time>
      </trkpt>
      <trkpt lat="48.99139" lon="1.10803">
        <ele>110</ele>
        <time>2015-05-22T20:00:29Z</time>
      </trkpt>
      <trkpt lat="48.99328" lon="1.11359">
        <ele>85</ele>
        <time>2015-05-22T20:00:29Z</time>
      </trkpt>
      <trkpt lat="48.99418" lon="1.11343">
        <ele>92</ele>
        <time>2015-05-22T20:00:29Z</time>
      </trkpt>
      <trkpt lat="48.99507" lon="1.11283">
        <ele>93</ele>
        <time>2015-05-22T20:00:29Z</time>
      </trkpt>
      <trkpt lat="48.99583" lon="1.11206">
        <ele>88</ele>
        <time>2015-05-22T20:00:29Z</time>
      </trkpt>
      <trkpt lat="48.99659" lon="1.11163">
        <ele>90</ele>
        <time>2015-05-22T20:00:29Z</time>
      </trkpt>
      <trkpt lat="48.9971" lon="1.111">
        <ele>89</ele>
        <time>2015-05-22T20:00:29Z</time>
      </trkpt>
      <trkpt lat="48.99792" lon="1.11013">
        <ele>93</ele>
        <time>2015-05-22T20:00:29Z</time>
      </trkpt>
      <trkpt lat="48.9985" lon="1.10943">
        <ele>89</ele>
        <time>2015-05-22T20:00:29Z</time>
      </trkpt>
      <trkpt lat="48.99885" lon="1.10901">
        <ele>86</ele>
        <time>2015-05-22T20:00:29Z</time>
      </trkpt>
      <trkpt lat="48.99908" lon="1.10884">
        <ele>84</ele>
        <time>2015-05-22T20:00:29Z</time>
      </trkpt>
      <trkpt lat="48.99985" lon="1.10978">
        <ele>87</ele>
        <time>2015-05-22T20:00:29Z</time>
      </trkpt>
      <trkpt lat="49.00058" lon="1.11085">
        <ele>91</ele>
        <time>2015-05-22T20:00:29Z</time>
      </trkpt>
      <trkpt lat="49.00108" lon="1.11135">
        <ele>92</ele>
        <time>2015-05-22T20:00:29Z</time>
      </trkpt>
      <trkpt lat="49.00135" lon="1.11148">
        <ele>91</ele>
        <time>2015-05-22T20:00:29Z</time>
      </trkpt>
      <trkpt lat="49.00138" lon="1.11196">
        <ele>99</ele>
        <time>2015-05-22T20:00:29Z</time>
      </trkpt>
      <trkpt lat="49.00174" lon="1.11226">
        <ele>100</ele>
        <time>2015-05-22T20:00:29Z</time>
      </trkpt>
      <trkpt lat="49.00244" lon="1.11279">
        <ele>102</ele>
        <time>2015-05-22T20:00:29Z</time>
      </trkpt>
      <trkpt lat="49.00296" lon="1.11291">
        <ele>98</ele>
        <time>2015-05-22T20:00:29Z</time>
      </trkpt>
      <trkpt lat="49.00323" lon="1.11321">
        <ele>96</ele>
        <time>2015-05-22T20:00:29Z</time>
      </trkpt>
      <trkpt lat="49.00324" lon="1.11369">
        <ele>102</ele>
        <time>2015-05-22T20:00:29Z</time>
      </trkpt>
      <trkpt lat="49.00237" lon="1.11402">
        <ele>118</ele>
        <time>2015-05-22T20:00:29Z</time>
      </trkpt>
      <trkpt lat="49.00156" lon="1.11465">
        <ele>124</ele>
        <time>2015-05-22T20:00:29Z</time>
      </trkpt>
      <trkpt lat="49.00089" lon="1.11474">
        <ele>127</ele>
        <time>2015-05-22T20:00:29Z</time>
      </trkpt>
      <trkpt lat="48.99995" lon="1.11524">
        <ele>128</ele>
        <time>2015-05-22T20:00:29Z</time>
      </trkpt>
      <trkpt lat="48.99888" lon="1.11567">
        <ele>125</ele>
        <time>2015-05-22T20:00:29Z</time>
      </trkpt>
      <trkpt lat="48.99747" lon="1.11632">
        <ele>123</ele>
        <time>2015-05-22T20:00:29Z</time>
      </trkpt>
      <trkpt lat="48.99765" lon="1.11878">
        <ele>117</ele>
        <time>2015-05-22T20:00:29Z</time>
      </trkpt>
      <trkpt lat="48.99846" lon="1.11841">
        <ele>112</ele>
        <time>2015-05-22T20:00:29Z</time>
      </trkpt>
      <trkpt lat="48.99934" lon="1.1188">
        <ele>112</ele>
        <time>2015-05-22T20:00:29Z</time>
      </trkpt>
      <trkpt lat="49.00002" lon="1.11927">
        <ele>108</ele>
        <time>2015-05-22T20:00:29Z</time>
      </trkpt>
      <trkpt lat="49.00042" lon="1.1196">
        <ele>107</ele>
        <time>2015-05-22T20:00:29Z</time>
      </trkpt>
      <trkpt lat="49.00025" lon="1.12005">
        <ele>112</ele>
        <time>2015-05-22T20:00:29Z</time>
      </trkpt>
      <trkpt lat="48.99976" lon="1.1205">
        <ele>118</ele>
        <time>2015-05-22T20:00:29Z</time>
      </trkpt>
      <trkpt lat="48.99949" lon="1.12051">
        <ele>119</ele>
        <time>2015-05-22T20:00:29Z</time>
      </trkpt>
      <trkpt lat="48.99927" lon="1.12079">
        <ele>121</ele>
        <time>2015-05-22T20:00:29Z</time>
      </trkpt>
      <trkpt lat="48.99891" lon="1.12097">
        <ele>123</ele>
        <time>2015-05-22T20:00:29Z</time>
      </trkpt>
      <trkpt lat="48.9981" lon="1.12112">
        <ele>125</ele>
        <time>2015-05-22T20:00:29Z</time>
      </trkpt>
      <trkpt lat="48.99837" lon="1.1235">
        <ele>127</ele>
        <time>2015-05-22T20:00:29Z</time>
      </trkpt>
      <trkpt lat="48.99876" lon="1.12613">
        <ele>133</ele>
        <time>2015-05-22T20:00:29Z</time>
      </trkpt>
      <trkpt lat="48.99902" lon="1.12752">
        <ele>137</ele>
        <time>2015-05-22T20:00:29Z</time>
      </trkpt>
      <trkpt lat="48.99905" lon="1.12796">
        <ele>139</ele>
        <time>2015-05-22T20:00:29Z</time>
      </trkpt>
      <trkpt lat="48.99906" lon="1.12871">
        <ele>139</ele>
        <time>2015-05-22T20:00:29Z</time>
      </trkpt>
      <trkpt lat="48.999" lon="1.12953">
        <ele>140</ele>
        <time>2015-05-22T20:00:29Z</time>
      </trkpt>
      <trkpt lat="48.99898" lon="1.13049">
        <ele>141</ele>
        <time>2015-05-22T20:00:29Z</time>
      </trkpt>
      <trkpt lat="48.99851" lon="1.13057">
        <ele>142</ele>
        <time>2015-05-22T20:00:29Z</time>
      </trkpt>
      <trkpt lat="48.99788" lon="1.13058">
        <ele>143</ele>
        <time>2015-05-22T20:00:29Z</time>
      </trkpt>
      <trkpt lat="48.99759" lon="1.13086">
        <ele>143</ele>
        <time>2015-05-22T20:00:29Z</time>
      </trkpt>
      <trkpt lat="48.99823" lon="1.13563">
        <ele>144</ele>
        <time>2015-05-22T20:00:29Z</time>
      </trkpt>
      <trkpt lat="48.99567" lon="1.13641">
        <ele>146</ele>
        <time>2015-05-22T20:00:29Z</time>
      </trkpt>
      <trkpt lat="48.99421" lon="1.12753">
        <ele>135</ele>
        <time>2015-05-22T20:00:29Z</time>
      </trkpt>
      <trkpt lat="48.99454" lon="1.12694">
        <ele>135</ele>
        <time>2015-05-22T20:00:29Z</time>
      </trkpt>
      <trkpt lat="48.9937" lon="1.12163">
        <ele>125</ele>
        <time>2015-05-22T20:00:29Z</time>
      </trkpt>
      <trkpt lat="48.99314" lon="1.12168">
        <ele>122</ele>
        <time>2015-05-22T20:00:29Z</time>
      </trkpt>
      <trkpt lat="48.99294" lon="1.12165">
        <ele>121</ele>
        <time>2015-05-22T20:00:29Z</time>
      </trkpt>
      <trkpt lat="48.99287" lon="1.12141">
        <ele>120</ele>
        <time>2015-05-22T20:00:29Z</time>
      </trkpt>
      <trkpt lat="48.99287" lon="1.12121">
        <ele>120</ele>
        <time>2015-05-22T20:00:29Z</time>
      </trkpt>
      <trkpt lat="48.99291" lon="1.1209">
        <ele>120</ele>
        <time>2015-05-22T20:00:29Z</time>
      </trkpt>
      <trkpt lat="48.99286" lon="1.12056">
        <ele>120</ele>
        <time>2015-05-22T20:00:29Z</time>
      </trkpt>
      <trkpt lat="48.99261" lon="1.12053">
        <ele>120</ele>
        <time>2015-05-22T20:00:29Z</time>
      </trkpt>
      <trkpt lat="48.99195" lon="1.12113">
        <ele>122</ele>
        <time>2015-05-22T20:00:29Z</time>
      </trkpt>
      <trkpt lat="48.99037" lon="1.12263">
        <ele>126</ele>
        <time>2015-05-22T20:00:29Z</time>
      </trkpt>
      <trkpt lat="48.98994" lon="1.12097">
        <ele>129</ele>
        <time>2015-05-22T20:00:29Z</time>
      </trkpt>
      <trkpt lat="48.98976" lon="1.12009">
        <ele>129</ele>
        <time>2015-05-22T20:00:29Z</time>
      </trkpt>
      <trkpt lat="48.98975" lon="1.11934">
        <ele>124</ele>
        <time>2015-05-22T20:00:29Z</time>
      </trkpt>
      <trkpt lat="48.99003" lon="1.11868">
        <ele>113</ele>
        <time>2015-05-22T20:00:29Z</time>
      </trkpt>
      <trkpt lat="48.9896" lon="1.11821">
        <ele>108</ele>
        <time>2015-05-22T20:00:29Z</time>
      </trkpt>
      <trkpt lat="48.99" lon="1.11797">
        <ele>100</ele>
        <time>2015-05-22T20:00:29Z</time>
      </trkpt>
      <trkpt lat="48.98926" lon="1.11754">
        <ele>95</ele>
        <time>2015-05-22T20:00:29Z</time>
      </trkpt>
      <trkpt lat="48.98859" lon="1.1181">
        <ele>100</ele>
        <time>2015-05-22T20:00:29Z</time>
      </trkpt>
      <trkpt lat="48.98792" lon="1.1188">
        <ele>98</ele>
        <time>2015-05-22T20:00:29Z</time>
      </trkpt>
      <trkpt lat="48.98695" lon="1.11995">
        <ele>101</ele>
        <time>2015-05-22T20:00:29Z</time>
      </trkpt>
      <trkpt lat="48.98623" lon="1.12021">
        <ele>97</ele>
        <time>2015-05-22T20:00:29Z</time>
      </trkpt>
      <trkpt lat="48.98549" lon="1.12073">
        <ele>100</ele>
        <time>2015-05-22T20:00:29Z</time>
      </trkpt>
      <trkpt lat="48.98507" lon="1.12122">
        <ele>97</ele>
        <time>2015-05-22T20:00:29Z</time>
      </trkpt>
      <trkpt lat="48.98504" lon="1.12252">
        <ele>100</ele>
        <time>2015-05-22T20:00:29Z</time>
      </trkpt>
      <trkpt lat="48.98523" lon="1.12364">
        <ele>97</ele>
        <time>2015-05-22T20:00:29Z</time>
      </trkpt>
      <trkpt lat="48.98535" lon="1.12449">
        <ele>103</ele>
        <time>2015-05-22T20:00:29Z</time>
      </trkpt>
      <trkpt lat="48.98518" lon="1.12494">
        <ele>107</ele>
        <time>2015-05-22T20:00:29Z</time>
      </trkpt>
      <trkpt lat="48.98475" lon="1.12485">
        <ele>102</ele>
        <time>2015-05-22T20:00:29Z</time>
      </trkpt>
      <trkpt lat="48.98391" lon="1.12439">
        <ele>102</ele>
        <time>2015-05-22T20:00:29Z</time>
      </trkpt>
      <trkpt lat="48.98313" lon="1.12301">
        <ele>102</ele>
        <time>2015-05-22T20:00:29Z</time>
      </trkpt>
      <trkpt lat="48.98252" lon="1.12214">
        <ele>104</ele>
        <time>2015-05-22T20:00:29Z</time>
      </trkpt>
      <trkpt lat="48.98203" lon="1.12266">
        <ele>111</ele>
        <time>2015-05-22T20:00:29Z</time>
      </trkpt>
      <trkpt lat="48.98145" lon="1.12278">
        <ele>111</ele>
        <time>2015-05-22T20:00:29Z</time>
      </trkpt>
      <trkpt lat="48.98071" lon="1.12286">
        <ele>109</ele>
        <time>2015-05-22T20:00:29Z</time>
      </trkpt>
      <trkpt lat="48.97979" lon="1.12302">
        <ele>110</ele>
        <time>2015-05-22T20:00:29Z</time>
      </trkpt>
      <trkpt lat="48.97936" lon="1.12303">
        <ele>108</ele>
        <time>2015-05-22T20:00:29Z</time>
      </trkpt>
      <trkpt lat="48.97876" lon="1.12335">
        <ele>107</ele>
        <time>2015-05-22T20:00:29Z</time>
      </trkpt>
      <trkpt lat="48.97858" lon="1.12373">
        <ele>109</ele>
        <time>2015-05-22T20:00:29Z</time>
      </trkpt>
      <trkpt lat="48.97845" lon="1.12448">
        <ele>111</ele>
        <time>2015-05-22T20:00:29Z</time>
      </trkpt>
      <trkpt lat="48.97844" lon="1.12527">
        <ele>111</ele>
        <time>2015-05-22T20:00:29Z</time>
      </trkpt>
      <trkpt lat="48.9782" lon="1.12592">
        <ele>112</ele>
        <time>2015-05-22T20:00:29Z</time>
      </trkpt>
      <trkpt lat="48.97163" lon="1.12526">
        <ele>136</ele>
        <time>2015-05-22T20:00:29Z</time>
      </trkpt>
      <trkpt lat="48.96603" lon="1.13082">
        <ele>138</ele>
        <time>2015-05-22T20:00:29Z</time>
      </trkpt>
      <trkpt lat="48.96529" lon="1.12896">
        <ele>140</ele>
        <time>2015-05-22T20:00:29Z</time>
      </trkpt>
      <trkpt lat="48.96496" lon="1.12774">
        <ele>140</ele>
        <time>2015-05-22T20:00:29Z</time>
      </trkpt>
      <trkpt lat="48.96468" lon="1.12627">
        <ele>141</ele>
        <time>2015-05-22T20:00:29Z</time>
      </trkpt>
      <trkpt lat="48.96455" lon="1.12536">
        <ele>141</ele>
        <time>2015-05-22T20:00:29Z</time>
      </trkpt>
      <trkpt lat="48.96412" lon="1.12475">
        <ele>141</ele>
        <time>2015-05-22T20:00:29Z</time>
      </trkpt>
      <trkpt lat="48.96313" lon="1.12205">
        <ele>144</ele>
        <time>2015-05-22T20:00:29Z</time>
      </trkpt>
      <trkpt lat="48.96216" lon="1.12012">
        <ele>144</ele>
        <time>2015-05-22T20:00:29Z</time>
      </trkpt>
      <trkpt lat="48.96154" lon="1.11887">
        <ele>144</ele>
        <time>2015-05-22T20:00:29Z</time>
      </trkpt>
      <trkpt lat="48.96143" lon="1.11813">
        <ele>144</ele>
        <time>2015-05-22T20:00:29Z</time>
      </trkpt>
      <trkpt lat="48.96085" lon="1.11681">
        <ele>144</ele>
        <time>2015-05-22T20:00:29Z</time>
      </trkpt>
      <trkpt lat="48.96064" lon="1.11623">
        <ele>144</ele>
        <time>2015-05-22T20:00:29Z</time>
      </trkpt>
      <trkpt lat="48.96061" lon="1.11535">
        <ele>144</ele>
        <time>2015-05-22T20:00:29Z</time>
      </trkpt>
      <trkpt lat="48.96026" lon="1.11423">
        <ele>145</ele>
        <time>2015-05-22T20:00:29Z</time>
      </trkpt>
      <trkpt lat="48.96005" lon="1.11308">
        <ele>145</ele>
        <time>2015-05-22T20:00:29Z</time>
      </trkpt>
      <trkpt lat="48.96042" lon="1.11211">
        <ele>145</ele>
        <time>2015-05-22T20:00:29Z</time>
      </trkpt>
      <trkpt lat="48.96054" lon="1.11115">
        <ele>145</ele>
        <time>2015-05-22T20:00:29Z</time>
      </trkpt>
      <trkpt lat="48.95961" lon="1.11015">
        <ele>146</ele>
        <time>2015-05-22T20:00:29Z</time>
      </trkpt>
      <trkpt lat="48.95734" lon="1.10809">
        <ele>155</ele>
        <time>2015-05-22T20:00:29Z</time>
      </trkpt>
      <trkpt lat="48.95564" lon="1.10663">
        <ele>161</ele>
        <time>2015-05-22T20:00:29Z</time>
      </trkpt>
      <trkpt lat="48.95418" lon="1.10588">
        <ele>161</ele>
        <time>2015-05-22T20:00:29Z</time>
      </trkpt>
      <trkpt lat="48.95229" lon="1.10555">
        <ele>158</ele>
        <time>2015-05-22T20:00:29Z</time>
      </trkpt>
      <trkpt lat="48.95091" lon="1.10497">
        <ele>153</ele>
        <time>2015-05-22T20:00:29Z</time>
      </trkpt>
      <trkpt lat="48.94973" lon="1.10421">
        <ele>149</ele>
        <time>2015-05-22T20:00:29Z</time>
      </trkpt>
      <trkpt lat="48.9491" lon="1.10405">
        <ele>148</ele>
        <time>2015-05-22T20:00:29Z</time>
      </trkpt>
      <trkpt lat="48.94839" lon="1.10452">
        <ele>148</ele>
        <time>2015-05-22T20:00:29Z</time>
      </trkpt>
      <trkpt lat="48.94747" lon="1.10498">
        <ele>149</ele>
        <time>2015-05-22T20:00:29Z</time>
      </trkpt>
      <trkpt lat="48.9472" lon="1.10488">
        <ele>148</ele>
        <time>2015-05-22T20:00:29Z</time>
      </trkpt>
      <trkpt lat="48.9469" lon="1.10407">
        <ele>145</ele>
        <time>2015-05-22T20:00:29Z</time>
      </trkpt>
      <trkpt lat="48.94677" lon="1.10479">
        <ele>146</ele>
        <time>2015-05-22T20:00:29Z</time>
      </trkpt>
      <trkpt lat="48.94662" lon="1.10565">
        <ele>149</ele>
        <time>2015-05-22T20:00:29Z</time>
      </trkpt>
      <trkpt lat="48.94475" lon="1.10692">
        <ele>150</ele>
        <time>2015-05-22T20:00:29Z</time>
      </trkpt>
      <trkpt lat="48.94381" lon="1.10742">
        <ele>149</ele>
        <time>2015-05-22T20:00:29Z</time>
      </trkpt>
      <trkpt lat="48.94382" lon="1.10797">
        <ele>150</ele>
        <time>2015-05-22T20:00:29Z</time>
      </trkpt>
      <trkpt lat="48.94288" lon="1.1086">
        <ele>151</ele>
        <time>2015-05-22T20:00:29Z</time>
      </trkpt>
      <trkpt lat="48.94161" lon="1.10921">
        <ele>151</ele>
        <time>2015-05-22T20:00:29Z</time>
      </trkpt>
      <trkpt lat="48.94036" lon="1.1104">
        <ele>150</ele>
        <time>2015-05-22T20:00:29Z</time>
      </trkpt>
      <trkpt lat="48.93795" lon="1.11251">
        <ele>149</ele>
        <time>2015-05-22T20:00:29Z</time>
      </trkpt>
      <trkpt lat="48.93744" lon="1.11293">
        <ele>148</ele>
        <time>2015-05-22T20:00:29Z</time>
      </trkpt>
      <trkpt lat="48.93659" lon="1.11322">
        <ele>146</ele>
        <time>2015-05-22T20:00:29Z</time>
      </trkpt>
      <trkpt lat="48.9361" lon="1.1133">
        <ele>145</ele>
        <time>2015-05-22T20:00:29Z</time>
      </trkpt>
      <trkpt lat="48.93581" lon="1.11334">
        <ele>144</ele>
        <time>2015-05-22T20:00:29Z</time>
      </trkpt>
      <trkpt lat="48.93569" lon="1.113">
        <ele>143</ele>
        <time>2015-05-22T20:00:29Z</time>
      </trkpt>
      <trkpt lat="48.93498" lon="1.11411">
        <ele>142</ele>
        <time>2015-05-22T20:00:29Z</time>
      </trkpt>
      <trkpt lat="48.93419" lon="1.11389">
        <ele>140</ele>
        <time>2015-05-22T20:00:29Z</time>
      </trkpt>
      <trkpt lat="48.93296" lon="1.11167">
        <ele>137</ele>
        <time>2015-05-22T20:00:29Z</time>
      </trkpt>
      <trkpt lat="48.93274" lon="1.11045">
        <ele>137</ele>
        <time>2015-05-22T20:00:29Z</time>
      </trkpt>
      <trkpt lat="48.93221" lon="1.10855">
        <ele>138</ele>
        <time>2015-05-22T20:00:29Z</time>
      </trkpt>
      <trkpt lat="48.93219" lon="1.10712">
        <ele>139</ele>
        <time>2015-05-22T20:00:29Z</time>
      </trkpt>
      <trkpt lat="48.93227" lon="1.10589">
        <ele>140</ele>
        <time>2015-05-22T20:00:29Z</time>
      </trkpt>
      <trkpt lat="48.93248" lon="1.10493">
        <ele>140</ele>
        <time>2015-05-22T20:00:29Z</time>
      </trkpt>
      <trkpt lat="48.9327" lon="1.10404">
        <ele>142</ele>
        <time>2015-05-22T20:00:29Z</time>
      </trkpt>
      <trkpt lat="48.93249" lon="1.10298">
        <ele>142</ele>
        <time>2015-05-22T20:00:29Z</time>
      </trkpt>
      <trkpt lat="48.93264" lon="1.10226">
        <ele>143</ele>
        <time>2015-05-22T20:00:29Z</time>
      </trkpt>
      <trkpt lat="48.93269" lon="1.10141">
        <ele>144</ele>
        <time>2015-05-22T20:00:29Z</time>
      </trkpt>
      <trkpt lat="48.93261" lon="1.09991">
        <ele>146</ele>
        <time>2015-05-22T20:00:29Z</time>
      </trkpt>
      <trkpt lat="48.93248" lon="1.09855">
        <ele>148</ele>
        <time>2015-05-22T20:00:29Z</time>
      </trkpt>
      <trkpt lat="48.93231" lon="1.09733">
        <ele>150</ele>
        <time>2015-05-22T20:00:29Z</time>
      </trkpt>
      <trkpt lat="48.93236" lon="1.09528">
        <ele>152</ele>
        <time>2015-05-22T20:00:29Z</time>
      </trkpt>
      <trkpt lat="48.93234" lon="1.09156">
        <ele>153</ele>
        <time>2015-05-22T20:00:29Z</time>
      </trkpt>
      <trkpt lat="48.93084" lon="1.08754">
        <ele>154</ele>
        <time>2015-05-22T20:00:29Z</time>
      </trkpt>
      <trkpt lat="48.93022" lon="1.08585">
        <ele>154</ele>
        <time>2015-05-22T20:00:29Z</time>
      </trkpt>
      <trkpt lat="48.93012" lon="1.08534">
        <ele>153</ele>
        <time>2015-05-22T20:00:29Z</time>
      </trkpt>
      <trkpt lat="48.92966" lon="1.08402">
        <ele>153</ele>
        <time>2015-05-22T20:00:29Z</time>
      </trkpt>
      <trkpt lat="48.92941" lon="1.08358">
        <ele>152</ele>
        <time>2015-05-22T20:00:29Z</time>
      </trkpt>
      <trkpt lat="48.929" lon="1.08298">
        <ele>152</ele>
        <time>2015-05-22T20:00:29Z</time>
      </trkpt>
      <trkpt lat="48.92863" lon="1.08193">
        <ele>152</ele>
        <time>2015-05-22T20:00:29Z</time>
      </trkpt>
      <trkpt lat="48.92803" lon="1.08058">
        <ele>152</ele>
        <time>2015-05-22T20:00:29Z</time>
      </trkpt>
      <trkpt lat="48.9275" lon="1.0793">
        <ele>151</ele>
        <time>2015-05-22T20:00:29Z</time>
      </trkpt>
      <trkpt lat="48.92724" lon="1.07876">
        <ele>151</ele>
        <time>2015-05-22T20:00:29Z</time>
      </trkpt>
      <trkpt lat="48.92711" lon="1.07839">
        <ele>150</ele>
        <time>2015-05-22T20:00:29Z</time>
      </trkpt>
      <trkpt lat="48.92656" lon="1.07813">
        <ele>149</ele>
        <time>2015-05-22T20:00:29Z</time>
      </trkpt>
      <trkpt lat="48.92582" lon="1.07818">
        <ele>148</ele>
        <time>2015-05-22T20:00:29Z</time>
      </trkpt>
      <trkpt lat="48.92533" lon="1.07853">
        <ele>148</ele>
        <time>2015-05-22T20:00:29Z</time>
      </trkpt>
      <trkpt lat="48.92482" lon="1.07889">
        <ele>148</ele>
        <time>2015-05-22T20:00:29Z</time>
      </trkpt>
      <trkpt lat="48.92401" lon="1.07915">
        <ele>149</ele>
        <time>2015-05-22T20:00:29Z</time>
      </trkpt>
      <trkpt lat="48.92302" lon="1.07917">
        <ele>148</ele>
        <time>2015-05-22T20:00:29Z</time>
      </trkpt>
      <trkpt lat="48.92248" lon="1.07877">
        <ele>147</ele>
        <time>2015-05-22T20:00:29Z</time>
      </trkpt>
      <trkpt lat="48.92167" lon="1.07838">
        <ele>147</ele>
        <time>2015-05-22T20:00:29Z</time>
      </trkpt>
      <trkpt lat="48.9209" lon="1.07779">
        <ele>148</ele>
        <time>2015-05-22T20:00:29Z</time>
      </trkpt>
      <trkpt lat="48.92004" lon="1.07716">
        <ele>149</ele>
        <time>2015-05-22T20:00:29Z</time>
      </trkpt>
      <trkpt lat="48.91938" lon="1.07697">
        <ele>150</ele>
        <time>2015-05-22T20:00:29Z</time>
      </trkpt>
      <trkpt lat="48.91844" lon="1.07676">
        <ele>148</ele>
        <time>2015-05-22T20:00:29Z</time>
      </trkpt>
      <trkpt lat="48.91893" lon="1.07828">
        <ele>150</ele>
        <time>2015-05-22T20:00:29Z</time>
      </trkpt>
      <trkpt lat="48.91919" lon="1.08025">
        <ele>150</ele>
        <time>2015-05-22T20:00:29Z</time>
      </trkpt>
      <trkpt lat="48.91975" lon="1.08228">
        <ele>152</ele>
        <time>2015-05-22T20:00:29Z</time>
      </trkpt>
      <trkpt lat="48.92011" lon="1.08395">
        <ele>153</ele>
        <time>2015-05-22T20:00:29Z</time>
      </trkpt>
      <trkpt lat="48.92023" lon="1.085">
        <ele>153</ele>
        <time>2015-05-22T20:00:29Z</time>
      </trkpt>
      <trkpt lat="48.92067" lon="1.08611">
        <ele>154</ele>
        <time>2015-05-22T20:00:29Z</time>
      </trkpt>
      <trkpt lat="48.92118" lon="1.08767">
        <ele>156</ele>
        <time>2015-05-22T20:00:29Z</time>
      </trkpt>
      <trkpt lat="48.92144" lon="1.08845">
        <ele>156</ele>
        <time>2015-05-22T20:00:29Z</time>
      </trkpt>
      <trkpt lat="48.92164" lon="1.08875">
        <ele>156</ele>
        <time>2015-05-22T20:00:29Z</time>
      </trkpt>
      <trkpt lat="48.92201" lon="1.08942">
        <ele>156</ele>
        <time>2015-05-22T20:00:29Z</time>
      </trkpt>
      <trkpt lat="48.92235" lon="1.09023">
        <ele>155</ele>
        <time>2015-05-22T20:00:29Z</time>
      </trkpt>
      <trkpt lat="48.92236" lon="1.09047">
        <ele>155</ele>
        <time>2015-05-22T20:00:29Z</time>
      </trkpt>
      <trkpt lat="48.92129" lon="1.09138">
        <ele>156</ele>
        <time>2015-05-22T20:00:29Z</time>
      </trkpt>
      <trkpt lat="48.92073" lon="1.09177">
        <ele>155</ele>
        <time>2015-05-22T20:00:29Z</time>
      </trkpt>
      <trkpt lat="48.91988" lon="1.0921">
        <ele>156</ele>
        <time>2015-05-22T20:00:29Z</time>
      </trkpt>
      <trkpt lat="48.91914" lon="1.09277">
        <ele>156</ele>
        <time>2015-05-22T20:00:29Z</time>
      </trkpt>
      <trkpt lat="48.91843" lon="1.09149">
        <ele>156</ele>
        <time>2015-05-22T20:00:29Z</time>
      </trkpt>
      <trkpt lat="48.91752" lon="1.09206">
        <ele>155</ele>
        <time>2015-05-22T20:00:29Z</time>
      </trkpt>
      <trkpt lat="48.91668" lon="1.0932">
        <ele>155</ele>
        <time>2015-05-22T20:00:29Z</time>
      </trkpt>
      <trkpt lat="48.91581" lon="1.09431">
        <ele>155</ele>
        <time>2015-05-22T20:00:29Z</time>
      </trkpt>
      <trkpt lat="48.91476" lon="1.09502">
        <ele>155</ele>
        <time>2015-05-22T20:00:29Z</time>
      </trkpt>
      <trkpt lat="48.91366" lon="1.09494">
        <ele>155</ele>
        <time>2015-05-22T20:00:29Z</time>
      </trkpt>
      <trkpt lat="48.91267" lon="1.095">
        <ele>155</ele>
        <time>2015-05-22T20:00:29Z</time>
      </trkpt>
      <trkpt lat="48.91231" lon="1.09501">
        <ele>155</ele>
        <time>2015-05-22T20:00:29Z</time>
      </trkpt>
      <trkpt lat="48.911" lon="1.09579">
        <ele>156</ele>
        <time>2015-05-22T20:00:29Z</time>
      </trkpt>
      <trkpt lat="48.90995" lon="1.09623">
        <ele>156</ele>
        <time>2015-05-22T20:00:29Z</time>
      </trkpt>
      <trkpt lat="48.90991" lon="1.09537">
        <ele>156</ele>
        <time>2015-05-22T20:00:29Z</time>
      </trkpt>
      <trkpt lat="48.90889" lon="1.09376">
        <ele>153</ele>
        <time>2015-05-22T20:00:29Z</time>
      </trkpt>
      <trkpt lat="48.90814" lon="1.09347">
        <ele>152</ele>
        <time>2015-05-22T20:00:29Z</time>
      </trkpt>
      <trkpt lat="48.90746" lon="1.09284">
        <ele>151</ele>
        <time>2015-05-22T20:00:29Z</time>
      </trkpt>
      <trkpt lat="48.90687" lon="1.09224">
        <ele>150</ele>
        <time>2015-05-22T20:00:29Z</time>
      </trkpt>
      <trkpt lat="48.9075" lon="1.09185">
        <ele>151</ele>
        <time>2015-05-22T20:00:29Z</time>
      </trkpt>
      <trkpt lat="48.90687" lon="1.08972">
        <ele>148</ele>
        <time>2015-05-22T20:00:29Z</time>
      </trkpt>
      <trkpt lat="48.9065" lon="1.08867">
        <ele>145</ele>
        <time>2015-05-22T20:00:29Z</time>
      </trkpt>
      <trkpt lat="48.9066" lon="1.08806">
        <ele>143</ele>
        <time>2015-05-22T20:00:29Z</time>
      </trkpt>
      <trkpt lat="48.90671" lon="1.08747">
        <ele>136</ele>
        <time>2015-05-22T20:00:29Z</time>
      </trkpt>
      <trkpt lat="48.90666" lon="1.0872">
        <ele>132</ele>
        <time>2015-05-22T20:00:29Z</time>
      </trkpt>
      <trkpt lat="48.90623" lon="1.08718">
        <ele>135</ele>
        <time>2015-05-22T20:00:29Z</time>
      </trkpt>
      <trkpt lat="48.90596" lon="1.08698">
        <ele>134</ele>
        <time>2015-05-22T20:00:29Z</time>
      </trkpt>
      <trkpt lat="48.9056" lon="1.08662">
        <ele>133</ele>
        <time>2015-05-22T20:00:29Z</time>
      </trkpt>
      <trkpt lat="48.90528" lon="1.08666">
        <ele>134</ele>
        <time>2015-05-22T20:00:29Z</time>
      </trkpt>
      <trkpt lat="48.90495" lon="1.08728">
        <ele>134</ele>
        <time>2015-05-22T20:00:29Z</time>
      </trkpt>
      <trkpt lat="48.90485" lon="1.08796">
        <ele>135</ele>
        <time>2015-05-22T20:00:29Z</time>
      </trkpt>
      <trkpt lat="48.90463" lon="1.08872">
        <ele>137</ele>
        <time>2015-05-22T20:00:29Z</time>
      </trkpt>
      <trkpt lat="48.90401" lon="1.08901">
        <ele>136</ele>
        <time>2015-05-22T20:00:29Z</time>
      </trkpt>
      <trkpt lat="48.90316" lon="1.08961">
        <ele>138</ele>
        <time>2015-05-22T20:00:29Z</time>
      </trkpt>
      <trkpt lat="48.90261" lon="1.09081">
        <ele>140</ele>
        <time>2015-05-22T20:00:29Z</time>
      </trkpt>
      <trkpt lat="48.90219" lon="1.09154">
        <ele>141</ele>
        <time>2015-05-22T20:00:29Z</time>
      </trkpt>
      <trkpt lat="48.90186" lon="1.09182">
        <ele>140</ele>
        <time>2015-05-22T20:00:29Z</time>
      </trkpt>
      <trkpt lat="48.90143" lon="1.09162">
        <ele>139</ele>
        <time>2015-05-22T20:00:29Z</time>
      </trkpt>
      <trkpt lat="48.90096" lon="1.0899">
        <ele>140</ele>
        <time>2015-05-22T20:00:29Z</time>
      </trkpt>
      <trkpt lat="48.90005" lon="1.089">
        <ele>142</ele>
        <time>2015-05-22T20:00:29Z</time>
      </trkpt>
      <trkpt lat="48.89807" lon="1.08615">
        <ele>145</ele>
        <time>2015-05-22T20:00:29Z</time>
      </trkpt>
      <trkpt lat="48.8974" lon="1.08654">
        <ele>146</ele>
        <time>2015-05-22T20:00:29Z</time>
      </trkpt>
      <trkpt lat="48.89663" lon="1.0868">
        <ele>146</ele>
        <time>2015-05-22T20:00:29Z</time>
      </trkpt>
      <trkpt lat="48.89574" lon="1.08689">
        <ele>146</ele>
        <time>2015-05-22T20:00:29Z</time>
      </trkpt>
      <trkpt lat="48.89524" lon="1.08687">
        <ele>146</ele>
        <time>2015-05-22T20:00:29Z</time>
      </trkpt>
      <trkpt lat="48.89546" lon="1.08611">
        <ele>147</ele>
        <time>2015-05-22T20:00:29Z</time>
      </trkpt>
      <trkpt lat="48.89525" lon="1.08567">
        <ele>147</ele>
        <time>2015-05-22T20:00:29Z</time>
      </trkpt>
      <trkpt lat="48.8949" lon="1.08449">
        <ele>146</ele>
        <time>2015-05-22T20:00:29Z</time>
      </trkpt>
      <trkpt lat="48.89478" lon="1.08391">
        <ele>145</ele>
        <time>2015-05-22T20:00:29Z</time>
      </trkpt>
      <trkpt lat="48.89426" lon="1.083">
        <ele>140</ele>
        <time>2015-05-22T20:00:29Z</time>
      </trkpt>
      <trkpt lat="48.89405" lon="1.08212">
        <ele>139</ele>
        <time>2015-05-22T20:00:29Z</time>
      </trkpt>
      <trkpt lat="48.89257" lon="1.08284">
        <ele>139</ele>
        <time>2015-05-22T20:00:29Z</time>
      </trkpt>
      <trkpt lat="48.8914" lon="1.08454">
        <ele>141</ele>
        <time>2015-05-22T20:00:29Z</time>
      </trkpt>
      <trkpt lat="48.89084" lon="1.08552">
        <ele>144.6</ele>
        <time>2015-05-22T20:00:29Z</time>
      </trkpt>
      <trkpt lat="48.89017" lon="1.08657">
        <ele>148</ele>
        <time>2015-05-22T20:00:29Z</time>
      </trkpt>
      <trkpt lat="48.88946" lon="1.08744">
        <ele>149.2</ele>
        <time>2015-05-22T20:00:29Z</time>
      </trkpt>
      <trkpt lat="48.8889" lon="1.08825">
        <ele>149.6</ele>
        <time>2015-05-22T20:00:29Z</time>
      </trkpt>
      <trkpt lat="48.88819" lon="1.0894">
        <ele>151.3</ele>
        <time>2015-05-22T20:00:29Z</time>
      </trkpt>
      <trkpt lat="48.88755" lon="1.09063">
        <ele>147</ele>
        <time>2015-05-22T20:00:29Z</time>
      </trkpt>
      <trkpt lat="48.88682" lon="1.09129">
        <ele>148</ele>
        <time>2015-05-22T20:00:29Z</time>
      </trkpt>
      <trkpt lat="48.88604" lon="1.09237">
        <ele>149</ele>
        <time>2015-05-22T20:00:29Z</time>
      </trkpt>
      <trkpt lat="48.88518" lon="1.09351">
        <ele>148</ele>
        <time>2015-05-22T20:00:29Z</time>
      </trkpt>
      <trkpt lat="48.8848" lon="1.09427">
        <ele>148</ele>
        <time>2015-05-22T20:00:29Z</time>
      </trkpt>
      <trkpt lat="48.88366" lon="1.09505">
        <ele>146</ele>
        <time>2015-05-22T20:00:29Z</time>
      </trkpt>
      <trkpt lat="48.8829" lon="1.09541">
        <ele>145</ele>
        <time>2015-05-22T20:00:29Z</time>
      </trkpt>
      <trkpt lat="48.88236" lon="1.09474">
        <ele>145</ele>
        <time>2015-05-22T20:00:29Z</time>
      </trkpt>
      <trkpt lat="48.88251" lon="1.09378">
        <ele>145</ele>
        <time>2015-05-22T20:00:29Z</time>
      </trkpt>
      <trkpt lat="48.88259" lon="1.09293">
        <ele>143</ele>
        <time>2015-05-22T20:00:29Z</time>
      </trkpt>
      <trkpt lat="48.8826" lon="1.09238">
        <ele>142</ele>
        <time>2015-05-22T20:00:29Z</time>
      </trkpt>
      <trkpt lat="48.88267" lon="1.09214">
        <ele>141</ele>
        <time>2015-05-22T20:00:29Z</time>
      </trkpt>
      <trkpt lat="48.88289" lon="1.09169">
        <ele>141</ele>
        <time>2015-05-22T20:00:29Z</time>
      </trkpt>
      <trkpt lat="48.88246" lon="1.09116">
        <ele>139</ele>
        <time>2015-05-22T20:00:29Z</time>
      </trkpt>
      <trkpt lat="48.88211" lon="1.09066">
        <ele>139</ele>
        <time>2015-05-22T20:00:29Z</time>
      </trkpt>
      <trkpt lat="48.88213" lon="1.09001">
        <ele>138</ele>
        <time>2015-05-22T20:00:29Z</time>
      </trkpt>
      <trkpt lat="48.88219" lon="1.08943">
        <ele>138</ele>
        <time>2015-05-22T20:00:29Z</time>
      </trkpt>
      <trkpt lat="48.88221" lon="1.08878">
        <ele>136</ele>
        <time>2015-05-22T20:00:29Z</time>
      </trkpt>
      <trkpt lat="48.88237" lon="1.08724">
        <ele>134</ele>
        <time>2015-05-22T20:00:29Z</time>
      </trkpt>
      <trkpt lat="48.88239" lon="1.08462">
        <ele>131</ele>
        <time>2015-05-22T20:00:29Z</time>
      </trkpt>
      <trkpt lat="48.88238" lon="1.08401">
        <ele>131</ele>
        <time>2015-05-22T20:00:29Z</time>
      </trkpt>
      <trkpt lat="48.88217" lon="1.0836">
        <ele>131</ele>
        <time>2015-05-22T20:00:29Z</time>
      </trkpt>
      <trkpt lat="48.88175" lon="1.08361">
        <ele>131</ele>
        <time>2015-05-22T20:00:29Z</time>
      </trkpt>
      <trkpt lat="48.88138" lon="1.08315">
        <ele>130</ele>
        <time>2015-05-22T20:00:29Z</time>
      </trkpt>
      <trkpt lat="48.8809" lon="1.08234">
        <ele>130</ele>
        <time>2015-05-22T20:00:29Z</time>
      </trkpt>
      <trkpt lat="48.88043" lon="1.08191">
        <ele>132</ele>
        <time>2015-05-22T20:00:29Z</time>
      </trkpt>
      <trkpt lat="48.87957" lon="1.08196">
        <ele>132</ele>
        <time>2015-05-22T20:00:29Z</time>
      </trkpt>
      <trkpt lat="48.87874" lon="1.08225">
        <ele>132</ele>
        <time>2015-05-22T20:00:29Z</time>
      </trkpt>
      <trkpt lat="48.87622" lon="1.07748">
        <ele>144</ele>
        <time>2015-05-22T20:00:29Z</time>
      </trkpt>
      <trkpt lat="48.87743" lon="1.07701">
        <ele>146</ele>
        <time>2015-05-22T20:00:29Z</time>
      </trkpt>
      <trkpt lat="48.87855" lon="1.07684">
        <ele>150</ele>
        <time>2015-05-22T20:00:29Z</time>
      </trkpt>
      <trkpt lat="48.8788" lon="1.0768">
        <ele>150</ele>
        <time>2015-05-22T20:00:29Z</time>
      </trkpt>
      <trkpt lat="48.87957" lon="1.0774">
        <ele>151</ele>
        <time>2015-05-22T20:00:29Z</time>
      </trkpt>
      <trkpt lat="48.88001" lon="1.0765">
        <ele>151</ele>
        <time>2015-05-22T20:00:29Z</time>
      </trkpt>
      <trkpt lat="48.88036" lon="1.07591">
        <ele>152</ele>
        <time>2015-05-22T20:00:29Z</time>
      </trkpt>
      <trkpt lat="48.88074" lon="1.07556">
        <ele>152</ele>
        <time>2015-05-22T20:00:29Z</time>
      </trkpt>
      <trkpt lat="48.88139" lon="1.07548">
        <ele>152</ele>
        <time>2015-05-22T20:00:29Z</time>
      </trkpt>
      <trkpt lat="48.88176" lon="1.07448">
        <ele>151</ele>
        <time>2015-05-22T20:00:29Z</time>
      </trkpt>
      <trkpt lat="48.88217" lon="1.07437">
        <ele>151</ele>
        <time>2015-05-22T20:00:29Z</time>
      </trkpt>
      <trkpt lat="48.88345" lon="1.07482">
        <ele>150</ele>
        <time>2015-05-22T20:00:29Z</time>
      </trkpt>
      <trkpt lat="48.88463" lon="1.07537">
        <ele>151</ele>
        <time>2015-05-22T20:00:29Z</time>
      </trkpt>
      <trkpt lat="48.88515" lon="1.07563">
        <ele>151</ele>
        <time>2015-05-22T20:00:29Z</time>
      </trkpt>
      <trkpt lat="48.88768" lon="1.07509">
        <ele>150</ele>
        <time>2015-05-22T20:00:29Z</time>
      </trkpt>
      <trkpt lat="48.88932" lon="1.07495">
        <ele>146</ele>
        <time>2015-05-22T20:00:29Z</time>
      </trkpt>
      <trkpt lat="48.89065" lon="1.07341">
        <ele>146</ele>
        <time>2015-05-22T20:00:29Z</time>
      </trkpt>
      <trkpt lat="48.89055" lon="1.07267">
        <ele>148</ele>
        <time>2015-05-22T20:00:29Z</time>
      </trkpt>
      <trkpt lat="48.89057" lon="1.07222">
        <ele>149</ele>
        <time>2015-05-22T20:00:29Z</time>
      </trkpt>
      <trkpt lat="48.89037" lon="1.07199">
        <ele>150</ele>
        <time>2015-05-22T20:00:29Z</time>
      </trkpt>
      <trkpt lat="48.88985" lon="1.07173">
        <ele>149</ele>
        <time>2015-05-22T20:00:29Z</time>
      </trkpt>
      <trkpt lat="48.88982" lon="1.07095">
        <ele>150</ele>
        <time>2015-05-22T20:00:29Z</time>
      </trkpt>
      <trkpt lat="48.88988" lon="1.07043">
        <ele>150</ele>
        <time>2015-05-22T20:00:29Z</time>
      </trkpt>
      <trkpt lat="48.89001" lon="1.06985">
        <ele>150</ele>
        <time>2015-05-22T20:00:29Z</time>
      </trkpt>
      <trkpt lat="48.89112" lon="1.06935">
        <ele>150</ele>
        <time>2015-05-22T20:00:29Z</time>
      </trkpt>
      <trkpt lat="48.89214" lon="1.06936">
        <ele>152</ele>
        <time>2015-05-22T20:00:29Z</time>
      </trkpt>
      <trkpt lat="48.89242" lon="1.06904">
        <ele>152</ele>
        <time>2015-05-22T20:00:29Z</time>
      </trkpt>
      <trkpt lat="48.89273" lon="1.06852">
        <ele>152</ele>
        <time>2015-05-22T20:00:29Z</time>
      </trkpt>
      <trkpt lat="48.89347" lon="1.06776">
        <ele>152</ele>
        <time>2015-05-22T20:00:29Z</time>
      </trkpt>
      <trkpt lat="48.89469" lon="1.06623">
        <ele>151</ele>
        <time>2015-05-22T20:00:29Z</time>
      </trkpt>
      <trkpt lat="48.89532" lon="1.06498">
        <ele>148</ele>
        <time>2015-05-22T20:00:29Z</time>
      </trkpt>
      <trkpt lat="48.89585" lon="1.06385">
        <ele>147</ele>
        <time>2015-05-22T20:00:29Z</time>
      </trkpt>
      <trkpt lat="48.89619" lon="1.0635">
        <ele>146</ele>
        <time>2015-05-22T20:00:29Z</time>
      </trkpt>
      <trkpt lat="48.8965" lon="1.06339">
        <ele>145</ele>
        <time>2015-05-22T20:00:29Z</time>
      </trkpt>
      <trkpt lat="48.89722" lon="1.06381">
        <ele>142</ele>
        <time>2015-05-22T20:00:29Z</time>
      </trkpt>
      <trkpt lat="48.89786" lon="1.06438">
        <ele>140</ele>
        <time>2015-05-22T20:00:29Z</time>
      </trkpt>
      <trkpt lat="48.89841" lon="1.06535">
        <ele>139</ele>
        <time>2015-05-22T20:00:29Z</time>
      </trkpt>
      <trkpt lat="48.89875" lon="1.06589">
        <ele>140</ele>
        <time>2015-05-22T20:00:29Z</time>
      </trkpt>
      <trkpt lat="48.89959" lon="1.06699">
        <ele>144</ele>
        <time>2015-05-22T20:00:29Z</time>
      </trkpt>
      <trkpt lat="48.9002" lon="1.06715">
        <ele>146</ele>
        <time>2015-05-22T20:00:29Z</time>
      </trkpt>
      <trkpt lat="48.90102" lon="1.06614">
        <ele>147</ele>
        <time>2015-05-22T20:00:29Z</time>
      </trkpt>
      <trkpt lat="48.9016" lon="1.06548">
        <ele>148</ele>
        <time>2015-05-22T20:00:29Z</time>
      </trkpt>
      <trkpt lat="48.90201" lon="1.06427">
        <ele>149</ele>
        <time>2015-05-22T20:00:29Z</time>
      </trkpt>
      <trkpt lat="48.90247" lon="1.06321">
        <ele>149</ele>
        <time>2015-05-22T20:00:29Z</time>
      </trkpt>
      <trkpt lat="48.90301" lon="1.06251">
        <ele>150</ele>
        <time>2015-05-22T20:00:29Z</time>
      </trkpt>
      <trkpt lat="48.90369" lon="1.06181">
        <ele>151</ele>
        <time>2015-05-22T20:00:29Z</time>
      </trkpt>
      <trkpt lat="48.90406" lon="1.06051">
        <ele>151</ele>
        <time>2015-05-22T20:00:29Z</time>
      </trkpt>
      <trkpt lat="48.90454" lon="1.05934">
        <ele>150</ele>
        <time>2015-05-22T20:00:29Z</time>
      </trkpt>
      <trkpt lat="48.90527" lon="1.05806">
        <ele>149</ele>
        <time>2015-05-22T20:00:29Z</time>
      </trkpt>
      <trkpt lat="48.90629" lon="1.05691">
        <ele>149</ele>
        <time>2015-05-22T20:00:29Z</time>
      </trkpt>
      <trkpt lat="48.90761" lon="1.05561">
        <ele>149</ele>
        <time>2015-05-22T20:00:29Z</time>
      </trkpt>
      <trkpt lat="48.90817" lon="1.05413">
        <ele>148</ele>
        <time>2015-05-22T20:00:29Z</time>
      </trkpt>
      <trkpt lat="48.9087" lon="1.05279">
        <ele>147</ele>
        <time>2015-05-22T20:00:29Z</time>
      </trkpt>
      <trkpt lat="48.90999" lon="1.05337">
        <ele>145</ele>
        <time>2015-05-22T20:00:29Z</time>
      </trkpt>
      <trkpt lat="48.91096" lon="1.05403">
        <ele>145</ele>
        <time>2015-05-22T20:00:29Z</time>
      </trkpt>
      <trkpt lat="48.91112" lon="1.05464">
        <ele>144</ele>
        <time>2015-05-22T20:00:29Z</time>
      </trkpt>
      <trkpt lat="48.91115" lon="1.05495">
        <ele>144</ele>
        <time>2015-05-22T20:00:29Z</time>
      </trkpt>
      <trkpt lat="48.91618" lon="1.05264">
        <ele>147</ele>
        <time>2015-05-22T20:00:29Z</time>
      </trkpt>
      <trkpt lat="48.91736" lon="1.05207">
        <ele>146</ele>
        <time>2015-05-22T20:00:29Z</time>
      </trkpt>
      <trkpt lat="48.91777" lon="1.05206">
        <ele>143</ele>
        <time>2015-05-22T20:00:29Z</time>
      </trkpt>
      <trkpt lat="48.91826" lon="1.05146">
        <ele>139</ele>
        <time>2015-05-22T20:00:29Z</time>
      </trkpt>
      <trkpt lat="48.91848" lon="1.05122">
        <ele>139</ele>
        <time>2015-05-22T20:00:29Z</time>
      </trkpt>
      <trkpt lat="48.91891" lon="1.05121">
        <ele>140</ele>
        <time>2015-05-22T20:00:29Z</time>
      </trkpt>
      <trkpt lat="48.91937" lon="1.05079">
        <ele>142</ele>
        <time>2015-05-22T20:00:29Z</time>
      </trkpt>
      <trkpt lat="48.92044" lon="1.04971">
        <ele>144</ele>
        <time>2015-05-22T20:00:29Z</time>
      </trkpt>
      <trkpt lat="48.92128" lon="1.04866">
        <ele>146</ele>
        <time>2015-05-22T20:00:29Z</time>
      </trkpt>
      <trkpt lat="48.92177" lon="1.04814">
        <ele>146</ele>
        <time>2015-05-22T20:00:29Z</time>
      </trkpt>
      <trkpt lat="48.92179" lon="1.04957">
        <ele>148</ele>
        <time>2015-05-22T20:00:29Z</time>
      </trkpt>
      <trkpt lat="48.92196" lon="1.051">
        <ele>148</ele>
        <time>2015-05-22T20:00:29Z</time>
      </trkpt>
      <trkpt lat="48.92223" lon="1.05287">
        <ele>148</ele>
        <time>2015-05-22T20:00:29Z</time>
      </trkpt>
      <trkpt lat="48.92241" lon="1.05498">
        <ele>148</ele>
        <time>2015-05-22T20:00:29Z</time>
      </trkpt>
      <trkpt lat="48.92235" lon="1.05569">
        <ele>148</ele>
        <time>2015-05-22T20:00:29Z</time>
      </trkpt>
      <trkpt lat="48.92266" lon="1.05783">
        <ele>138</ele>
        <time>2015-05-22T20:00:29Z</time>
      </trkpt>
      <trkpt lat="48.92291" lon="1.0596">
        <ele>132</ele>
        <time>2015-05-22T20:00:29Z</time>
      </trkpt>
      <trkpt lat="48.92325" lon="1.06218">
        <ele>127</ele>
        <time>2015-05-22T20:00:29Z</time>
      </trkpt>
      <trkpt lat="48.9236" lon="1.06333">
        <ele>124</ele>
        <time>2015-05-22T20:00:29Z</time>
      </trkpt>
      <trkpt lat="48.92451" lon="1.0643">
        <ele>120</ele>
        <time>2015-05-22T20:00:29Z</time>
      </trkpt>
      <trkpt lat="48.92537" lon="1.06067">
        <ele>115</ele>
        <time>2015-05-22T20:00:29Z</time>
      </trkpt>
      <trkpt lat="48.92573" lon="1.05926">
        <ele>114</ele>
        <time>2015-05-22T20:00:29Z</time>
      </trkpt>
      <trkpt lat="48.9261" lon="1.05823">
        <ele>113</ele>
        <time>2015-05-22T20:00:29Z</time>
      </trkpt>
      <trkpt lat="48.92622" lon="1.05676">
        <ele>113</ele>
        <time>2015-05-22T20:00:29Z</time>
      </trkpt>
      <trkpt lat="48.92639" lon="1.05583">
        <ele>113</ele>
        <time>2015-05-22T20:00:29Z</time>
      </trkpt>
      <trkpt lat="48.92673" lon="1.05579">
        <ele>114</ele>
        <time>2015-05-22T20:00:29Z</time>
      </trkpt>
      <trkpt lat="48.92763" lon="1.0558">
        <ele>115</ele>
        <time>2015-05-22T20:00:29Z</time>
      </trkpt>
      <trkpt lat="48.92821" lon="1.05579">
        <ele>115</ele>
        <time>2015-05-22T20:00:29Z</time>
      </trkpt>
      <trkpt lat="48.9286" lon="1.05581">
        <ele>114</ele>
        <time>2015-05-22T20:00:29Z</time>
      </trkpt>
      <trkpt lat="48.92861" lon="1.05697">
        <ele>115</ele>
        <time>2015-05-22T20:00:29Z</time>
      </trkpt>
      <trkpt lat="48.92848" lon="1.05806">
        <ele>117</ele>
        <time>2015-05-22T20:00:29Z</time>
      </trkpt>
      <trkpt lat="48.93007" lon="1.05932">
        <ele>118</ele>
        <time>2015-05-22T20:00:29Z</time>
      </trkpt>
      <trkpt lat="48.93098" lon="1.06022">
        <ele>123</ele>
        <time>2015-05-22T20:00:29Z</time>
      </trkpt>
      <trkpt lat="48.93237" lon="1.06175">
        <ele>148</ele>
        <time>2015-05-22T20:00:29Z</time>
      </trkpt>
      <trkpt lat="48.93223" lon="1.06387">
        <ele>150</ele>
        <time>2015-05-22T20:00:29Z</time>
      </trkpt>
      <trkpt lat="48.93215" lon="1.06664">
        <ele>143</ele>
        <time>2015-05-22T20:00:29Z</time>
      </trkpt>
      <trkpt lat="48.9327" lon="1.06962">
        <ele>143</ele>
        <time>2015-05-22T20:00:29Z</time>
      </trkpt>
      <trkpt lat="48.93413" lon="1.07355">
        <ele>144</ele>
        <time>2015-05-22T20:00:29Z</time>
      </trkpt>
      <trkpt lat="48.93465" lon="1.07541">
        <ele>147</ele>
        <time>2015-05-22T20:00:29Z</time>
      </trkpt>
      <trkpt lat="48.93468" lon="1.07599">
        <ele>147</ele>
        <time>2015-05-22T20:00:29Z</time>
      </trkpt>
      <trkpt lat="48.93462" lon="1.07674">
        <ele>147</ele>
        <time>2015-05-22T20:00:29Z</time>
      </trkpt>
      <trkpt lat="48.93488" lon="1.07806">
        <ele>149</ele>
        <time>2015-05-22T20:00:29Z</time>
      </trkpt>
      <trkpt lat="48.93507" lon="1.07973">
        <ele>151</ele>
        <time>2015-05-22T20:00:29Z</time>
      </trkpt>
      <trkpt lat="48.93515" lon="1.0801">
        <ele>151</ele>
        <time>2015-05-22T20:00:29Z</time>
      </trkpt>
      <trkpt lat="48.93608" lon="1.07947">
        <ele>152</ele>
        <time>2015-05-22T20:00:29Z</time>
      </trkpt>
      <trkpt lat="48.93695" lon="1.079">
        <ele>152</ele>
        <time>2015-05-22T20:00:29Z</time>
      </trkpt>
      <trkpt lat="48.93776" lon="1.07864">
        <ele>152</ele>
        <time>2015-05-22T20:00:29Z</time>
      </trkpt>
      <trkpt lat="48.94084" lon="1.08924">
        <ele>143</ele>
        <time>2015-05-22T20:00:29Z</time>
      </trkpt>
      <trkpt lat="48.94329" lon="1.08768">
        <ele>143</ele>
        <time>2015-05-22T20:00:29Z</time>
      </trkpt>
      <trkpt lat="48.94435" lon="1.08837">
        <ele>141</ele>
        <time>2015-05-22T20:00:29Z</time>
      </trkpt>
      <trkpt lat="48.94568" lon="1.08858">
        <ele>141</ele>
        <time>2015-05-22T20:00:29Z</time>
      </trkpt>
      <trkpt lat="48.9464" lon="1.08867">
        <ele>140</ele>
        <time>2015-05-22T20:00:29Z</time>
      </trkpt>
      <trkpt lat="48.94717" lon="1.08919">
        <ele>139</ele>
        <time>2015-05-22T20:00:29Z</time>
      </trkpt>
      <trkpt lat="48.94692" lon="1.09128">
        <ele>137</ele>
        <time>2015-05-22T20:00:29Z</time>
      </trkpt>
      <trkpt lat="48.9467" lon="1.09316">
        <ele>135</ele>
        <time>2015-05-22T20:00:29Z</time>
      </trkpt>
      <trkpt lat="48.9464" lon="1.09453">
        <ele>135</ele>
        <time>2015-05-22T20:00:29Z</time>
      </trkpt>
      <trkpt lat="48.94602" lon="1.0955">
        <ele>134</ele>
        <time>2015-05-22T20:00:29Z</time>
      </trkpt>
      <trkpt lat="48.94591" lon="1.0957">
        <ele>134</ele>
        <time>2015-05-22T20:00:29Z</time>
      </trkpt>
      <trkpt lat="48.94617" lon="1.09635">
        <ele>133</ele>
        <time>2015-05-22T20:00:29Z</time>
      </trkpt>
      <trkpt lat="48.94658" lon="1.09681">
        <ele>134</ele>
        <time>2015-05-22T20:00:29Z</time>
      </trkpt>
      <trkpt lat="48.94676" lon="1.09698">
        <ele>137</ele>
        <time>2015-05-22T20:00:29Z</time>
      </trkpt>
      <trkpt lat="48.94738" lon="1.09645">
        <ele>139</ele>
        <time>2015-05-22T20:00:29Z</time>
      </trkpt>
      <trkpt lat="48.94774" lon="1.09607">
        <ele>141</ele>
        <time>2015-05-22T20:00:29Z</time>
      </trkpt>
      <trkpt lat="48.94818" lon="1.09504">
        <ele>138</ele>
        <time>2015-05-22T20:00:29Z</time>
      </trkpt>
      <trkpt lat="48.94878" lon="1.09454">
        <ele>137</ele>
        <time>2015-05-22T20:00:29Z</time>
      </trkpt>
      <trkpt lat="48.9496" lon="1.09401">
        <ele>135</ele>
        <time>2015-05-22T20:00:29Z</time>
      </trkpt>
      <trkpt lat="48.95169" lon="1.09331">
        <ele>135</ele>
        <time>2015-05-22T20:00:29Z</time>
      </trkpt>
      <trkpt lat="48.95283" lon="1.09291">
        <ele>135</ele>
        <time>2015-05-22T20:00:29Z</time>
      </trkpt>
      <trkpt lat="48.95332" lon="1.09273">
        <ele>133</ele>
        <time>2015-05-22T20:00:29Z</time>
      </trkpt>
      <trkpt lat="48.954" lon="1.09357">
        <ele>138</ele>
        <time>2015-05-22T20:00:29Z</time>
      </trkpt>
      <trkpt lat="48.95453" lon="1.094">
        <ele>141</ele>
        <time>2015-05-22T20:00:29Z</time>
      </trkpt>
      <trkpt lat="48.95581" lon="1.09448">
        <ele>143</ele>
        <time>2015-05-22T20:00:29Z</time>
      </trkpt>
      <trkpt lat="48.95662" lon="1.0949">
        <ele>147</ele>
        <time>2015-05-22T20:00:29Z</time>
      </trkpt>
      <trkpt lat="48.95735" lon="1.0955">
        <ele>152</ele>
        <time>2015-05-22T20:00:29Z</time>
      </trkpt>
      <trkpt lat="48.95802" lon="1.09558">
        <ele>154</ele>
        <time>2015-05-22T20:00:29Z</time>
      </trkpt>
      <trkpt lat="48.95892" lon="1.09539">
        <ele>152</ele>
        <time>2015-05-22T20:00:29Z</time>
      </trkpt>
      <trkpt lat="48.95921" lon="1.09532">
        <ele>150</ele>
        <time>2015-05-22T20:00:29Z</time>
      </trkpt>
      <trkpt lat="48.95983" lon="1.09592">
        <ele>148</ele>
        <time>2015-05-22T20:00:29Z</time>
      </trkpt>
      <trkpt lat="48.96165" lon="1.09645">
        <ele>144</ele>
        <time>2015-05-22T20:00:29Z</time>
      </trkpt>
      <trkpt lat="48.96348" lon="1.09733">
        <ele>141</ele>
        <time>2015-05-22T20:00:29Z</time>
      </trkpt>
      <trkpt lat="48.96463" lon="1.09737">
        <ele>141</ele>
        <time>2015-05-22T20:00:29Z</time>
      </trkpt>
      <trkpt lat="48.96651" lon="1.09709">
        <ele>140</ele>
        <time>2015-05-22T20:00:29Z</time>
      </trkpt>
      <trkpt lat="48.96795" lon="1.09692">
        <ele>140</ele>
        <time>2015-05-22T20:00:29Z</time>
      </trkpt>
      <trkpt lat="48.96806" lon="1.09685">
        <ele>140</ele>
        <time>2015-05-22T20:00:29Z</time>
      </trkpt>
      <trkpt lat="48.9683" lon="1.0967">
        <ele>140</ele>
        <time>2015-05-22T20:00:29Z</time>
      </trkpt>
      <trkpt lat="48.96852" lon="1.09612">
        <ele>139</ele>
        <time>2015-05-22T20:00:29Z</time>
      </trkpt>
      <trkpt lat="48.96859" lon="1.09598">
        <ele>139</ele>
        <time>2015-05-22T20:00:29Z</time>
      </trkpt>
      <trkpt lat="48.96909" lon="1.09614">
        <ele>139</ele>
        <time>2015-05-22T20:00:29Z</time>
      </trkpt>
      <trkpt lat="48.96908" lon="1.09604">
        <ele>139</ele>
        <time>2015-05-22T20:00:29Z</time>
      </trkpt>
    </trkseg>
  </trk>
</gpx>